[[{"header":{"parameterUnit":"m.s-1","parameterCategory":1,"la1":30.2991,"la2":30.254,"lo1":-89.0895,"lo2":-89.0444,"dy":0.0017,"dx":0.0017,"nx":28,"ny":28,"refTime":"2025-03-24T09:00:00:Z","depth":0,"parameterNumber":2,"parameterNumberName":"U-component_of_WINDS"},"data":[0,0,0,0,0,0,0,0,0,0,0,0,0,0,0,0,0,0,0,0,0,0,0,0,0,0,0,0,0,0,0,0,0,0,0,0,0,0,0,0,0,0,0,0,0,0,0,0,0,0,0,0,0,0,0,0,0,0,-0.0463,-0.0463,0,-0.0429,-0.0429,-0.0428,-0.0393,-0.0392,-0.0392,-0.0391,-0.0356,-0.0356,-0.0355,0,0,0,0,0,0,0,0,0,0,0,0,0,-0.0498,-0.0497,-0.0463,-0.0463,-0.0462,-0.0429,-0.0429,-0.0428,-0.0393,-0.0392,-0.0392,-0.0391,-0.0356,-0.0356,-0.0355,0,0,0,0,0,0,0,0,0,0,0,0,0,-0.0475,-0.0497,-0.0463,-0.0441,-0.0438,-0.0429,-0.0429,-0.0428,-0.0393,-0.0392,-0.0392,-0.0391,-0.0357,-0.0356,-0.0355,-0.0366,0,0,-0.0353,-0.0353,0,0,0,0,0,0,0,0,-0.0476,-0.0474,-0.0444,-0.0442,-0.044,-0.0414,-0.0428,-0.0407,-0.0393,-0.041,-0.0391,-0.039,-0.0376,-0.0374,-0.0369,-0.0364,-0.0362,-0.0353,-0.0353,-0.0352,-0.0352,0,0,0,0,0,0,0,-0.0478,-0.0475,-0.045,-0.0444,-0.0441,-0.0432,-0.0428,-0.0424,-0.0398,-0.0409,-0.0406,-0.0402,-0.0375,-0.037,-0.0368,-0.0362,-0.0353,-0.0352,-0.0352,-0.0352,-0.0363,-0.0364,0,0,0,0,0,0,-0.0483,-0.0477,-0.0451,-0.0449,-0.0457,-0.0432,-0.0428,-0.0423,-0.0398,-0.0393,-0.0403,-0.0401,-0.0371,-0.0369,-0.0367,-0.0377,-0.0352,-0.0352,-0.0351,-0.0362,-0.0363,-0.0364,0,0,0,0,0,0,-0.0484,-0.0481,-0.0452,-0.0462,-0.0458,-0.0432,-0.0428,-0.0423,-0.0418,-0.0394,-0.0389,-0.0403,-0.0371,-0.0368,-0.0366,-0.0375,-0.0351,-0.0351,-0.0362,-0.0363,-0.0364,-0.0398,0,0,0,0,0,0,-0.0485,-0.0482,-0.0485,-0.0462,-0.0457,-0.0452,-0.0428,-0.0423,-0.0417,-0.0414,-0.0392,-0.0388,-0.037,-0.0367,-0.0365,-0.0374,-0.035,-0.0361,-0.0362,-0.0363,-0.0396,-0.04,-0.0403,0,0,0,0,0,-0.0486,-0.0496,-0.0486,-0.0483,-0.0461,-0.0453,-0.045,-0.0429,-0.0418,-0.0421,-0.0405,-0.0388,-0.0375,-0.0367,-0.0365,-0.0373,-0.036,-0.0362,-0.0363,-0.0394,-0.0399,-0.0403,0,0,0,0,0,0,-0.0521,-0.0493,-0.0481,-0.0483,-0.0471,-0.0447,-0.0451,-0.0435,-0.0426,-0.0423,-0.0398,-0.0393,-0.0395,-0.0384,-0.0376,-0.0382,-0.0365,-0.0366,-0.0389,-0.0394,-0.0397,-0.04,-0.0349,0,0,0,0,0,-0.0529,-0.0525,-0.05,-0.0505,-0.0499,-0.0476,-0.0472,-0.0457,-0.0443,-0.0437,-0.0421,-0.0408,-0.0401,-0.0397,-0.0388,-0.0394,-0.0388,-0.0398,-0.0402,-0.0405,-0.0407,-0.0409,-0.0413,-0.037,-0.037,-0.037,0,0,-0.0545,-0.0529,-0.0528,-0.0511,-0.05,-0.0496,-0.0472,-0.0469,-0.0465,-0.0437,-0.0434,-0.0422,-0.0406,-0.0408,-0.0408,-0.0399,-0.0418,-0.0408,-0.041,-0.041,-0.0411,-0.0415,-0.0419,-0.0371,-0.0371,-0.037,0,0,-0.0573,-0.0561,-0.0563,-0.0552,-0.0535,-0.052,-0.052,-0.0499,-0.0489,-0.0487,-0.0465,-0.0461,-0.0449,-0.0438,-0.0431,-0.0454,-0.0438,-0.0452,-0.0473,-0.0475,-0.0478,-0.0481,-0.0489,-0.0493,-0.0454,-0.0454,-0.0454,0,-0.0596,-0.0589,-0.0566,-0.0564,-0.0558,-0.0532,-0.0534,-0.0524,-0.0505,-0.0501,-0.0491,-0.0475,-0.0463,-0.0462,-0.0467,-0.0463,-0.0462,-0.0455,-0.0479,-0.0482,-0.0484,-0.0492,-0.0495,-0.0456,-0.0456,-0.0455,-0.0455,0,-0.0617,-0.0613,-0.0617,-0.0599,-0.0593,-0.0593,-0.0571,-0.0567,-0.0553,-0.0538,-0.0536,-0.0519,-0.0507,-0.0506,-0.0492,-0.0503,-0.0498,-0.0484,-0.0467,-0.0491,-0.0497,-0.05,-0.0458,-0.0458,-0.0457,-0.0457,0,0,-0.0666,-0.0636,-0.0638,-0.0629,-0.0609,-0.0605,-0.0604,-0.0592,-0.0589,-0.0577,-0.0575,-0.0566,-0.0553,-0.0545,-0.0529,-0.0531,-0.0551,-0.0517,-0.0516,-0.0524,-0.0562,-0.0572,-0.0576,-0.054,-0.054,-0.0541,-0.0563,0,-0.069,-0.0687,-0.0667,-0.0669,-0.0664,-0.064,-0.0639,-0.0626,-0.0612,-0.0606,-0.0591,-0.0585,-0.0568,-0.0563,-0.0564,-0.0548,-0.0558,-0.0546,-0.0538,-0.0538,-0.0543,-0.0579,-0.0591,-0.0612,-0.0565,-0.0566,-0.0566,0,-0.0718,-0.0707,-0.071,-0.0688,-0.0686,-0.0685,-0.0673,-0.0668,-0.0652,-0.0642,-0.0634,-0.0616,-0.0613,-0.0597,-0.0593,-0.0586,-0.0581,-0.0573,-0.0573,-0.0571,-0.0554,-0.0579,-0.0619,-0.0622,-0.057,-0.057,-0.057,0,-0.0753,-0.074,-0.0739,-0.0733,-0.0708,-0.0708,-0.0698,-0.0682,-0.0676,-0.0665,-0.0661,-0.065,-0.0644,-0.0636,-0.0616,-0.0606,-0.0614,-0.0596,-0.0606,-0.0606,-0.0609,-0.0609,-0.0649,-0.0606,-0.0606,-0.0606,-0.0606,0,-0.0782,-0.0785,-0.0755,-0.0754,-0.0756,-0.0733,-0.0735,-0.0722,-0.0708,-0.0705,-0.0683,-0.068,-0.0654,-0.0648,-0.0632,-0.0631,-0.0629,-0.062,-0.0616,-0.0622,-0.0624,-0.0619,-0.0617,-0.0607,-0.0607,-0.0606,-0.0606,0,-0.0822,-0.0802,-0.08,-0.0777,-0.0771,-0.0773,-0.0753,-0.0752,-0.0737,-0.0733,-0.0731,-0.0708,-0.07,-0.0679,-0.0666,-0.0655,-0.0658,-0.0651,-0.0664,-0.0661,-0.0672,-0.0671,-0.071,-0.0714,-0.0669,-0.0669,-0.067,0,-0.0842,-0.0843,-0.082,-0.0816,-0.0807,-0.0801,-0.0795,-0.0772,-0.0767,-0.0749,-0.075,-0.074,-0.0732,-0.072,-0.0702,-0.0692,-0.0683,-0.0698,-0.0682,-0.0688,-0.0683,-0.0684,-0.0684,-0.0701,-0.0702,-0.0702,-0.0703,0,-0.088,-0.087,-0.0862,-0.0851,-0.0844,-0.0834,-0.0823,-0.0821,-0.0795,-0.079,-0.0782,-0.0775,-0.0761,-0.0752,-0.0738,-0.0728,-0.0711,-0.0708,-0.071,-0.0716,-0.0723,-0.0719,-0.0673,-0.0707,-0.0707,-0.0706,-0.0706,-0.0706,-0.091,-0.091,-0.0894,-0.0886,-0.0875,-0.0865,-0.0862,-0.0847,-0.0839,-0.0827,-0.0813,-0.0807,-0.0791,-0.0771,-0.0762,-0.0756,-0.0747,-0.075,-0.075,-0.0751,-0.0754,-0.0724,-0.0753,-0.0753,-0.0753,-0.0753,-0.0753,0,-0.0947,-0.0935,-0.0928,-0.0912,-0.0906,-0.0891,-0.0877,-0.0873,-0.0867,-0.0854,-0.0846,-0.0836,-0.0827,-0.0808,-0.0797,-0.0796,-0.0788,-0.0794,-0.0794,-0.0791,-0.0763,-0.0762,-0.08,-0.08,-0.08,-0.08,-0.08,-0.08,-0.0965,-0.0964,-0.0952,-0.0945,-0.0933,-0.0926,-0.0919,-0.091,-0.0899,-0.0889,-0.0882,-0.0869,-0.0854,-0.0841,-0.0832,-0.0827,-0.0824,-0.0832,-0.0824,-0.0798,-0.0793,-0.0789,-0.0789,-0.0832,-0.0832,-0.0853,-0.0854,-0.0854]},{"header":{"parameterUnit":"m.s-1","parameterCategory":1,"la1":30.2991,"la2":30.254,"lo1":-89.0895,"lo2":-89.0444,"dy":0.0017,"dx":0.0017,"nx":28,"ny":28,"refTime":"2025-03-24T09:00:00:Z","depth":0,"parameterNumber":3,"parameterNumberName":"V-component_of_WINDS"},"data":[0,0,0,0,0,0,0,0,0,0,0,0,0,0,0,0,0,0,0,0,0,0,0,0,0,0,0,0,0,0,0,0,0,0,0,0,0,0,0,0,0,0,0,0,0,0,0,0,0,0,0,0,0,0,0,0,0,0,-0.2112,-0.2112,0,-0.211,-0.211,-0.211,-0.2109,-0.2109,-0.2109,-0.2109,-0.2107,-0.2107,-0.2107,0,0,0,0,0,0,0,0,0,0,0,0,0,-0.2116,-0.2116,-0.2112,-0.2112,-0.2112,-0.211,-0.211,-0.211,-0.2109,-0.2109,-0.2109,-0.2109,-0.2107,-0.2107,-0.2107,0,0,0,0,0,0,0,0,0,0,0,0,0,-0.2114,-0.2116,-0.2112,-0.2112,-0.2112,-0.211,-0.211,-0.211,-0.2109,-0.2109,-0.2109,-0.2109,-0.2107,-0.2107,-0.2107,-0.2106,0,0,-0.2106,-0.2106,0,0,0,0,0,0,0,0,-0.2114,-0.2114,-0.2112,-0.2112,-0.2112,-0.211,-0.211,-0.2109,-0.2109,-0.211,-0.2109,-0.2109,-0.2108,-0.2108,-0.2107,-0.2106,-0.2105,-0.2106,-0.2106,-0.2106,-0.2106,0,0,0,0,0,0,0,-0.2114,-0.2114,-0.2112,-0.2112,-0.2112,-0.2111,-0.2111,-0.211,-0.2109,-0.211,-0.211,-0.211,-0.2108,-0.2107,-0.2107,-0.2105,-0.2106,-0.2106,-0.2106,-0.2106,-0.2103,-0.2103,0,0,0,0,0,0,-0.2115,-0.2114,-0.2112,-0.2112,-0.2113,-0.2111,-0.2111,-0.2111,-0.2109,-0.2109,-0.211,-0.211,-0.2107,-0.2107,-0.2107,-0.2106,-0.2106,-0.2106,-0.2106,-0.2103,-0.2103,-0.2103,0,0,0,0,0,0,-0.2115,-0.2114,-0.2112,-0.2113,-0.2112,-0.2111,-0.2111,-0.2111,-0.211,-0.2109,-0.2108,-0.211,-0.2107,-0.2107,-0.2106,-0.2106,-0.2106,-0.2106,-0.2103,-0.2103,-0.2103,-0.2104,0,0,0,0,0,0,-0.2115,-0.2114,-0.2114,-0.2113,-0.2112,-0.2111,-0.2111,-0.211,-0.211,-0.211,-0.2108,-0.2108,-0.2107,-0.2106,-0.2106,-0.2106,-0.2106,-0.2103,-0.2103,-0.2103,-0.2104,-0.2104,-0.2104,0,0,0,0,0,-0.2115,-0.2114,-0.2114,-0.2114,-0.2112,-0.2111,-0.2111,-0.211,-0.211,-0.211,-0.2109,-0.2108,-0.2106,-0.2106,-0.2106,-0.2106,-0.2103,-0.2103,-0.2103,-0.2104,-0.2104,-0.2104,0,0,0,0,0,0,-0.2115,-0.2114,-0.2114,-0.2113,-0.2112,-0.2111,-0.211,-0.211,-0.2109,-0.2109,-0.2108,-0.2108,-0.2107,-0.2106,-0.2106,-0.2105,-0.2105,-0.2105,-0.2105,-0.2105,-0.2105,-0.2105,-0.2106,0,0,0,0,0,-0.2115,-0.2114,-0.2113,-0.2112,-0.2112,-0.2111,-0.2111,-0.211,-0.2109,-0.2109,-0.2108,-0.2107,-0.2107,-0.2106,-0.2105,-0.2104,-0.2104,-0.2104,-0.2104,-0.2104,-0.2104,-0.2103,-0.2103,-0.2103,-0.2103,-0.2103,0,0,-0.2115,-0.2114,-0.2114,-0.2112,-0.2112,-0.2111,-0.2111,-0.211,-0.211,-0.2109,-0.2108,-0.2107,-0.2106,-0.2105,-0.2105,-0.2105,-0.2104,-0.2104,-0.2104,-0.2104,-0.2103,-0.2103,-0.2103,-0.2103,-0.2103,-0.2103,0,0,-0.2114,-0.2113,-0.2113,-0.2112,-0.2111,-0.2111,-0.2111,-0.211,-0.2109,-0.2109,-0.2108,-0.2108,-0.2106,-0.2105,-0.2105,-0.2105,-0.2104,-0.2104,-0.2104,-0.2104,-0.2104,-0.2104,-0.2104,-0.2104,-0.2104,-0.2104,-0.2104,0,-0.2114,-0.2113,-0.2112,-0.2112,-0.2111,-0.2111,-0.211,-0.211,-0.2109,-0.2108,-0.2108,-0.2107,-0.2106,-0.2105,-0.2105,-0.2105,-0.2105,-0.2104,-0.2104,-0.2104,-0.2104,-0.2104,-0.2104,-0.2104,-0.2104,-0.2104,-0.2104,0,-0.2112,-0.2112,-0.2111,-0.2111,-0.211,-0.2109,-0.2109,-0.2109,-0.2109,-0.2108,-0.2107,-0.2107,-0.2106,-0.2106,-0.2105,-0.2105,-0.2105,-0.2104,-0.2104,-0.2104,-0.2104,-0.2104,-0.2104,-0.2104,-0.2104,-0.2104,0,0,-0.2111,-0.2111,-0.211,-0.211,-0.211,-0.2109,-0.2109,-0.2108,-0.2108,-0.2107,-0.2107,-0.2106,-0.2106,-0.2105,-0.2105,-0.2105,-0.2105,-0.2104,-0.2104,-0.2104,-0.2104,-0.2104,-0.2104,-0.2104,-0.2104,-0.2104,-0.2104,0,-0.211,-0.2109,-0.2109,-0.2108,-0.2108,-0.2108,-0.2107,-0.2107,-0.2107,-0.2106,-0.2106,-0.2106,-0.2106,-0.2105,-0.2105,-0.2105,-0.2104,-0.2105,-0.2104,-0.2104,-0.2104,-0.2104,-0.2104,-0.2104,-0.2104,-0.2104,-0.2104,0,-0.2109,-0.2108,-0.2108,-0.2108,-0.2107,-0.2107,-0.2107,-0.2106,-0.2106,-0.2106,-0.2105,-0.2105,-0.2105,-0.2105,-0.2104,-0.2105,-0.2104,-0.2104,-0.2104,-0.2104,-0.2104,-0.2104,-0.2104,-0.2103,-0.2104,-0.2104,-0.2104,0,-0.2108,-0.2107,-0.2107,-0.2107,-0.2106,-0.2106,-0.2106,-0.2106,-0.2106,-0.2105,-0.2105,-0.2105,-0.2105,-0.2104,-0.2104,-0.2104,-0.2104,-0.2104,-0.2104,-0.2104,-0.2103,-0.2103,-0.2103,-0.2103,-0.2103,-0.2103,-0.2103,0,-0.2106,-0.2106,-0.2106,-0.2106,-0.2106,-0.2106,-0.2105,-0.2105,-0.2105,-0.2105,-0.2105,-0.2105,-0.2104,-0.2104,-0.2104,-0.2104,-0.2104,-0.2103,-0.2103,-0.2103,-0.2103,-0.2103,-0.2103,-0.2103,-0.2103,-0.2103,-0.2103,0,-0.2105,-0.2105,-0.2105,-0.2105,-0.2105,-0.2105,-0.2105,-0.2105,-0.2105,-0.2104,-0.2104,-0.2104,-0.2104,-0.2104,-0.2103,-0.2103,-0.2103,-0.2103,-0.2103,-0.2103,-0.2103,-0.2103,-0.2102,-0.2102,-0.2103,-0.2103,-0.2103,0,-0.2104,-0.2104,-0.2104,-0.2104,-0.2104,-0.2104,-0.2104,-0.2104,-0.2104,-0.2104,-0.2104,-0.2104,-0.2103,-0.2103,-0.2103,-0.2103,-0.2103,-0.2103,-0.2103,-0.2103,-0.2103,-0.2103,-0.2103,-0.2103,-0.2103,-0.2103,-0.2103,0,-0.2102,-0.2103,-0.2103,-0.2103,-0.2103,-0.2103,-0.2103,-0.2103,-0.2103,-0.2103,-0.2103,-0.2103,-0.2103,-0.2103,-0.2103,-0.2103,-0.2103,-0.2103,-0.2103,-0.2102,-0.2102,-0.2102,-0.2103,-0.2102,-0.2102,-0.2102,-0.2102,-0.2102,-0.2101,-0.2101,-0.2101,-0.2101,-0.2102,-0.2102,-0.2102,-0.2102,-0.2102,-0.2102,-0.2102,-0.2102,-0.2102,-0.2102,-0.2102,-0.2102,-0.2102,-0.2102,-0.2102,-0.2102,-0.2102,-0.2103,-0.2102,-0.2102,-0.2102,-0.2102,-0.2102,0,-0.2099,-0.21,-0.21,-0.21,-0.21,-0.2101,-0.2101,-0.2101,-0.2101,-0.2101,-0.2101,-0.2101,-0.2101,-0.2102,-0.2102,-0.2102,-0.2102,-0.2102,-0.2102,-0.2102,-0.2102,-0.2102,-0.2102,-0.2102,-0.2102,-0.2102,-0.2102,-0.2102,-0.2098,-0.2098,-0.2099,-0.2099,-0.2099,-0.2099,-0.2099,-0.21,-0.21,-0.21,-0.21,-0.21,-0.2101,-0.2101,-0.2101,-0.2101,-0.2101,-0.2101,-0.2101,-0.2101,-0.2101,-0.2102,-0.2102,-0.2101,-0.2101,-0.2101,-0.2101,-0.2101]}]]